SL-14 DEB, 47085

Orbit data source: Space-Track

SL-14 DEB, 47085 is space debris in LEO originally from a launch on Thu, 15 Aug 1991 UTC launched from the Plesetsk Missile And Space Complex (PKMTR). Debris objects in space refer to the collection of defunct objects orbiting the Earth. Examples of debris include non-operational satellites, rocket bodies, and fragments generated from explosions, collisions, or faulty payload assembly.

Loading next visibility...
Identifier
47085, 1991-056DK
Orbit
LEO
Country
Flag of CISCIS
Related business
Manufacturer
Unknown
Mission
Spacecraft
Bus & Motor
Unknown
Mass
Unknown
Launch date (UTC)
1991-08-15 (35 years ago)
Launch vehicle
Unknown
Launch site
Plesetsk Missile And Space Complex (PKMTR)
Object type
Payload
Rocket body
Debris
Shape & HBR
Unknown shape, 0.1 m
Radar Cross Section
Small (<0.1 m²)

Expand to show TLE details & history
Last TLE update: 21 hours ago

TLE from 21 hours ago
0 SL-14 DEB
1 47085U 91056DK  26254.09927630  .00000044  00000-0  58342-4 0  9994
2 47085  82.5825  30.5181 0084878  40.1958 320.5410 13.35168842285197
Epoch: 2026-09-11T02:22Z
TLE epoch observation values (Epoch: 2026-09-11T02:22:57.472Z)
Latitude
-0.00005°
Longitude
4.65113°
Altitude
1,081.19 km
Speed
7.335 km/s
True Right ascension
02h 02m 04s
True Declination
0° 00' 00"
Sunlit
Object was in full shadow at epoch
Visualization orbit readout
Latitude
Unknown
Longitude
Unknown
Altitude
Unknown
Speed
Unknown
Apparent Right ascension
Unknown
Apparent Declination
Unknown
Sunlit
N/A
Visualization observer readout
Local Sidereal Time
15:32:53
Azimuth
Unknown
Elevation
Unknown
Doppler factor
Unknown
Orbital elements
Apogee altitude
1,188.229 km
Perigee altitude
1,060.866 km
Semi-major axis
7,502.685 km
Eccentricity
0.00849
Inclination
82.5825°
RAAN
30.5181°
Arg. of periapsis
40.1958°
True anomaly
319.91778°
Mean anomaly
320.541°
Eccentric anomaly
320.2299°
Mean motion
3.33978 °/min
Orbital period
107.79 mins
BSTAR
0.000058342
Loading maneuver chart data...
Computing Atmospheric mass density...
Loading historical data...
Loading historical data...
Loading historical data...
Loading historical data...
Loading historical data...
Loading historical data...
Loading historical data...

Documentation

Showing up to 5 results
|